Theta_e
310 311 311 311 311 311 314 317 318 319 321 323 324 324 325 325 326 327 327 327 328 327 327 327 327 327 327 324 322 322 323 323 323 323 323 325 328 330 337 341 337 331 332 334
312 311 311 311 310 310 313 315 318 319 319 321 323 324 324 325 326 326 326 326 326 326 326 327 327 326 327 324 322 322 321 322 322 321 322 326 334 342 343 342 332 330 333 336
312 312 311 310 310 310 312 315 317 318 319 320 321 323 324 324 324 324 324 324 324 324 324 324 324 324 325 327 324 323 322 321 320 319 322 324 329 332 340 341 333 333 336 339
312 311 311 310 310 310 310 312 315 317 319 322 321 323 324 324 324 325 324 323 323 323 323 323 322 323 324 325 325 325 319 320 319 320 322 325 336 341 342 342 343 336 339 339
312 310 310 310 310 309 310 311 314 316 318 320 321 322 322 323 324 324 325 323 322 322 321 321 321 321 322 322 323 324 319 318 319 321 324 328 336 343 344 344 340 343 340 340
312 311 310 309 309 310 311 311 314 316 317 319 319 321 321 322 322 323 323 321 320 320 320 320 320 321 320 321 321 324 319 320 321 323 327 331 343 344 345 345 345 345 343 342
313 312 310 309 309 310 311 311 316 318 319 319 318 319 320 321 320 321 322 319 319 320 320 321 321 322 323 323 323 328 323 322 325 330 332 337 337 339 343 342 345 344 342 341
313 314 311 310 310 309 312 312 314 316 316 317 317 318 319 320 320 319 319 319 320 323 323 325 327 328 327 324 327 332 338 340 341 340 339 341 339 344 345 343 342 340 337 337
314 312 310 311 310 310 309 310 312 313 314 316 317 317 318 319 319 320 319 319 321 324 328 331 334 335 331 325 332 338 343 345 346 344 341 341 344 343 342 342 339 338 338 338
312 315 312 311 311 312 310 311 311 313 314 315 316 317 318 319 318 319 319 320 320 322 326 332 337 336 333 332 338 343 345 346 346 344 344 343 342 341 337 333 338 338 337 336
310 312 312 311 312 312 310 310 311 312 312 314 315 317 318 320 320 320 320 319 319 319 323 331 337 335 338 339 342 345 345 345 345 344 343 341 339 337 335 335 335 334 330 332
310 311 313 312 311 310 311 313 313 311 313 313 316 319 319 320 320 320 319 319 318 318 320 330 337 336 340 341 343 345 344 344 343 341 339 339 338 338 337 337 336 331 334 334
311 312 312 311 312 312 310 310 312 313 314 316 314 316 318 318 318 317 318 318 318 317 318 323 335 337 340 342 343 343 342 341 340 339 338 338 338 337 336 335 334 334 334 332
309 312 312 313 311 311 311 312 311 313 314 313 315 315 318 317 317 317 317 317 317 316 317 319 331 337 338 342 342 341 340 339 338 337 336 336 335 333 333 334 335 333 333 332
309 312 311 311 311 310 311 310 311 312 313 313 314 314 315 316 316 316 315 316 315 315 317 318 323 337 339 341 341 340 339 337 337 336 334 332 332 334 335 335 334 333 332 331
310 313 311 311 310 311 310 310 311 311 311 312 312 313 313 313 313 313 313 314 315 316 317 318 321 338 340 340 340 339 337 336 335 332 331 332 333 335 335 334 333 332 331 332
311 312 312 313 310 310 311 311 310 311 311 311 312 313 314 314 315 314 314 313 314 315 317 319 320 337 340 340 339 338 337 336 332 330 331 333 334 334 334 334 333 332 332 332
310 311 311 312 311 312 313 315 314 315 315 315 315 315 316 317 316 314 313 313 314 317 319 320 321 337 340 340 339 338 336 334 330 330 331 333 333 333 333 333 333 333 331 332
309 310 311 312 312 310 310 312 313 314 314 313 314 315 316 316 316 316 314 314 314 317 323 326 324 338 339 340 339 337 335 331 328 331 332 333 333 333 333 334 333 332 331 329
309 307 313 312 314 314 319 313 311 310 315 311 311 314 317 317 320 316 317 318 321 323 324 328 332 338 339 339 339 336 333 328 329 331 332 333 333 333 333 333 333 332 331 330
314 312 312 313 316 314 314 312 309 316 317 312 311 311 313 316 317 318 319 320 320 321 325 329 334 338 339 340 338 335 331 329 330 332 331 333 333 334 334 333 333 332 331 330
315 315 315 316 316 318 312 312 313 314 310 310 310 310 310 311 315 316 319 320 321 324 327 331 336 339 338 339 336 335 330 329 331 331 331 332 334 334 333 333 333 331 330 329
314 314 315 316 314 312 310 311 310 309 310 309 310 310 310 311 314 316 318 321 324 327 331 335 338 339 339 338 336 332 329 331 331 331 331 332 334 334 334 334 332 330 329 330
313 312 314 314 312 311 310 311 310 309 310 310 310 310 311 313 314 316 319 322 326 330 333 337 338 340 340 337 335 332 329 331 331 331 331 331 333 334 333 333 331 331 330 329
313 313 313 314 311 310 310 309 310 312 310 309 310 312 313 315 315 318 321 324 327 332 334 337 339 340 339 337 336 329 330 331 332 331 331 332 332 332 332 332 331 330 328 329
313 313 314 314 310 311 311 311 311 311 310 310 310 311 314 316 318 319 322 326 330 335 335 338 339 339 337 336 332 328 330 331 332 331 331 331 331 333 331 331 329 328 328 327
Wind_Speed
16 15 18 21 22 30 28 31 31 28 26 26 32 33 31 31 32 26 26 25 25 26 27 26 25 24 24 28 30 29 26 27 24 23 19 18 20 20 17 18 20 16 15 16
12 20 21 22 22 27 29 31 32 21 21 25 26 32 29 30 31 36 35 34 33 32 30 28 28 24 24 27 27 24 23 22 21 21 19 16 15 14 15 15 16 14 15 16
20 25 20 16 18 23 26 27 28 28 19 17 22 30 31 29 32 33 30 31 31 30 32 31 28 26 25 24 26 25 24 24 23 22 20 18 16 15 14 15 13 15 15 14
15 17 21 20 22 21 27 28 26 27 18 18 21 22 26 26 26 27 32 30 31 29 29 28 29 30 31 30 26 26 31 29 27 23 19 18 15 14 13 13 13 13 14 15
19 17 14 18 23 24 25 25 23 27 25 20 22 14 17 16 19 19 18 25 27 27 30 33 34 34 32 29 24 24 30 28 24 22 18 19 16 14 13 14 14 14 16 16
22 23 12 16 21 18 17 23 18 19 21 21 29 21 14 18 21 18 18 21 21 22 18 21 20 18 22 22 21 20 21 22 21 20 19 18 17 16 16 16 16 15 15 15
12 19 18 14 22 13 18 16 11 14 16 19 28 24 18 7 8 11 12 4 7 10 12 13 12 12 13 15 20 19 20 18 17 16 17 18 17 16 16 17 16 17 15 14
9 7 13 18 21 15 20 18 13 16 17 16 19 14 17 19 25 16 10 2 1 6 9 11 12 15 14 13 16 19 17 16 17 18 19 19 18 16 16 16 16 14 14 13
6 4 5 11 17 22 18 19 20 25 19 14 18 20 21 8 10 10 9 3 6 10 12 13 14 13 11 13 16 17 17 18 19 20 21 21 18 18 17 17 18 15 14 13
5 10 7 5 16 19 20 14 17 8 18 17 14 18 12 22 23 19 13 4 8 13 16 17 13 9 5 11 14 16 18 20 21 20 20 19 19 18 19 19 15 14 13 12
12 6 3 8 6 4 13 13 11 15 15 11 13 15 15 13 12 12 11 7 11 16 18 18 14 7 4 11 15 18 20 22 22 20 20 20 20 20 18 16 14 13 11 10
7 7 11 12 7 6 7 10 13 10 17 14 10 5 5 15 15 9 7 10 15 18 18 17 14 5 6 13 17 20 21 21 21 20 21 21 20 18 16 14 12 11 10 10
9 4 9 3 7 9 8 10 15 13 9 15 15 4 11 12 7 3 10 13 17 19 20 17 15 4 7 14 18 19 20 20 20 21 21 20 19 16 14 13 11 11 11 11
10 12 14 13 14 8 8 10 9 12 12 15 16 18 16 14 10 12 17 18 21 22 20 17 14 4 7 14 17 19 20 20 21 20 19 18 16 15 14 13 12 13 12 11
6 11 16 16 15 14 16 16 17 19 18 17 18 18 18 19 18 18 24 24 27 23 18 17 17 2 8 14 17 19 19 20 21 20 18 17 16 15 14 13 13 14 12 12
7 6 11 14 14 15 19 20 22 21 20 19 21 24 23 24 29 27 28 25 22 21 18 17 15 2 10 15 17 19 20 21 20 18 17 17 15 14 12 12 14 14 13 13
5 5 5 12 5 11 14 19 19 19 20 17 20 18 17 19 20 20 28 24 21 22 20 18 14 5 13 17 18 21 21 20 19 18 17 16 15 12 12 12 14 14 14 14
5 8 5 8 5 6 5 8 8 9 14 15 17 16 22 21 26 27 25 23 20 19 19 19 14 5 15 18 20 21 21 21 19 18 18 15 13 12 12 12 14 15 14 12
14 10 4 4 6 15 19 1 4 8 20 15 20 20 21 26 23 21 21 21 20 20 16 17 11 6 17 21 23 23 22 21 20 20 18 15 13 13 12 12 13 13 13 12
5 8 4 5 5 4 2 2 2 8 11 10 9 10 14 17 10 9 7 7 9 14 16 14 10 8 20 24 25 25 24 22 21 19 17 15 13 13 13 12 12 12 12 11
3 3 11 13 6 7 5 11 2 4 3 13 13 17 18 11 13 24 19 20 20 19 18 14 11 14 24 25 26 27 25 23 21 19 17 15 14 14 13 12 12 11 10 11
3 4 1 2 5 2 16 15 4 11 26 23 23 20 20 24 22 22 23 23 21 19 15 12 12 18 25 26 27 27 25 23 22 19 17 15 14 13 13 12 12 11 11 9
3 3 4 4 5 15 21 17 28 30 28 23 23 23 22 24 22 22 24 22 19 17 13 11 16 22 25 27 28 27 24 25 22 20 17 15 14 14 13 12 13 11 11 11
7 9 4 11 8 16 24 27 21 25 29 26 20 23 23 25 22 24 23 21 18 14 13 14 20 25 26 28 27 24 26 25 23 21 18 16 15 13 11 9 11 10 10 11
10 9 9 14 14 26 13 25 28 27 16 16 19 18 21 21 24 22 21 19 16 13 13 18 23 26 27 29 27 24 26 26 23 21 19 17 14 13 12 9 9 9 10 10
4 5 3 10 24 17 22 30 29 17 18 17 20 21 17 18 21 20 20 18 16 13 17 20 23 26 28 28 27 27 26 26 24 23 20 18 15 12 11 10 12 11 10 10
Wind_Direction
256 248 255 261 252 251 260 265 250 245 248 228 222 239 244 245 248 244 244 241 242 248 255 263 263 263 262 278 287 280 273 269 265 276 277 267 253 242 226 217 222 232 233 228
258 249 254 271 274 257 245 252 256 261 268 242 234 237 243 246 246 248 250 252 256 260 261 263 264 264 270 280 271 269 273 266 269 272 270 256 240 221 211 210 225 230 224 218
268 263 269 266 259 254 253 250 247 251 265 242 248 247 245 240 243 251 255 254 260 264 268 268 270 271 272 264 268 270 273 273 271 268 260 253 227 222 201 205 219 218 210 202
276 280 261 255 254 251 249 245 244 252 236 226 216 248 235 232 242 244 247 252 255 258 260 265 270 270 267 269 266 265 269 265 271 260 247 239 211 198 201 192 190 197 190 185
268 287 253 253 254 248 254 240 241 230 245 249 244 239 251 252 244 241 242 252 254 257 263 267 268 266 266 262 260 256 257 262 255 253 236 229 195 198 181 170 181 173 176 180
269 264 259 267 302 239 258 225 238 243 230 233 236 246 248 245 245 245 238 250 258 259 260 266 264 265 257 253 246 240 241 244 241 239 223 199 187 179 169 167 160 161 166 172
322 253 226 250 278 238 267 210 205 216 217 221 223 231 238 210 7 259 244 247 245 254 274 279 278 273 266 246 229 221 224 231 226 206 188 179 178 174 171 163 158 161 166 172
337 311 273 200 244 266 206 228 226 217 210 217 229 223 226 239 250 263 265 161 245 336 315 305 295 283 268 235 216 208 206 200 183 171 165 163 164 156 156 155 161 161 163 170
308 308 282 273 219 254 242 234 236 246 263 247 209 214 257 221 211 207 168 153 17 2 356 332 313 293 259 223 202 192 181 171 164 159 158 158 151 148 157 156 152 157 161 177
291 295 271 267 305 249 256 256 232 225 232 223 219 210 223 210 224 228 236 77 8 4 360 350 331 315 249 194 181 174 168 162 156 153 153 152 151 152 156 156 152 155 167 167
307 279 277 238 239 280 221 237 250 253 227 242 225 212 203 146 120 112 102 60 16 13 358 356 347 328 191 170 165 161 158 155 151 150 149 147 146 148 153 155 158 168 182 190
359 295 290 285 171 182 260 280 262 234 224 247 293 98 137 122 126 114 71 24 9 2 357 2 -0 11 156 158 157 156 155 151 149 147 145 146 144 147 149 151 160 181 173 171
359 283 311 252 178 193 231 247 277 277 304 256 231 174 139 152 167 44 0 350 346 346 350 359 8 33 146 155 156 154 151 148 149 147 147 146 144 148 151 155 160 163 165 162
298 278 266 278 305 313 291 280 243 262 268 242 247 256 183 202 293 316 318 317 321 327 337 351 4 9 151 159 157 153 151 149 147 149 149 145 147 151 151 153 156 160 159 161
255 267 267 267 276 279 276 272 264 252 254 264 268 264 266 278 293 306 299 298 301 306 323 342 348 353 182 165 159 156 153 151 152 151 149 146 148 150 150 151 156 160 160 159
236 262 280 280 268 263 271 262 252 247 247 253 258 262 269 274 277 279 284 289 299 306 313 325 331 330 199 170 163 160 158 157 154 151 150 150 152 153 155 157 160 160 158 161
279 277 287 266 318 300 275 254 252 253 254 258 259 266 275 277 277 272 277 284 292 294 299 314 320 300 196 177 170 166 163 159 155 152 152 152 152 157 159 161 166 168 175 170
232 243 263 281 298 250 53 39 334 317 305 305 283 279 276 279 275 268 271 276 280 285 295 302 302 277 192 179 172 168 166 161 159 157 155 154 152 158 161 164 171 178 176 176
225 228 240 252 233 274 288 323 331 345 303 287 279 275 273 271 282 270 259 263 270 275 289 301 282 242 190 178 172 169 167 165 165 162 161 157 157 161 162 167 173 181 176 183
202 221 266 210 244 268 94 120 24 327 273 35 343 305 294 316 278 256 255 266 274 275 290 291 289 209 182 178 172 170 168 168 167 165 163 161 162 162 162 167 169 170 171 175
296 176 223 244 262 268 66 354 33 235 1 333 321 296 296 302 272 299 296 289 286 286 287 281 266 198 183 176 173 171 169 170 166 162 162 163 165 164 167 162 161 163 164 168
290 317 338 264 259 260 341 327 227 303 304 298 291 283 288 281 287 286 281 284 287 288 280 264 217 187 179 176 173 172 171 170 166 165 165 167 170 169 169 159 155 161 173 172
294 354 302 224 268 289 291 288 287 289 268 272 276 274 273 276 277 281 278 280 282 279 270 237 190 178 175 174 174 172 169 168 166 165 165 165 167 172 172 164 163 162 169 164
305 305 270 307 319 303 320 302 289 294 265 267 267 270 263 268 273 272 273 273 275 263 236 206 185 174 172 173 173 171 167 168 165 163 162 162 166 167 159 164 165 164 173 172
274 302 321 296 314 324 311 303 304 301 264 275 275 274 264 264 267 264 269 269 260 247 216 193 179 174 172 171 172 170 170 168 165 164 162 159 164 159 166 161 159 167 168 171
244 308 280 310 315 315 312 311 305 315 304 281 273 275 263 261 260 259 262 260 257 223 200 181 174 174 170 169 170 171 172 170 167 167 167 166 166 167 164 162 170 164 166 169